Change the Weather History Date:

Wednesday, January 2, 2002

  Actual Average Record
Temperature  
Mean Temperature 26 °F -  
Max Temperature 30 °F 36 °F 63 °F (2005)
Min Temperature 21 °F 25 °F 8 °F (2001)
Degree Days  
Heating Degree Days 40    
Moisture  
Dew Point 19 °F    
Average Humidity 72    
Maximum Humidity 85    
Minimum Humidity 61    
Precipitation  
Precipitation 0.00 in - - ()
Sea Level Pressure  
Sea Level Pressure 30.35 in    
Wind  
Wind Speed 8 mph (WSW)    
Max Wind Speed 13 mph    
Max Gust Speed 20 mph    
Visibility 9 miles    
Events Snow    
Averages and records for this station are not official NWS values.
T = Trace of Precipitation, MM = Missing Value Source: NWS Daily Summary

Daily Weather History Graph

Daily Weather History Graph

Search for Another Location

Airport or City:

Trip Planner

Search our weather history database for the weather conditions in past years. The results will help you decide how hot, cold, wet, or windy it might be!

Date:

Astronomy

Jan. 02, 2002 Rise Set
Actual Time 7:53 AM EST 5:08 PM EST
Civil Twilight 7:22 AM EST 5:39 PM EST
Nautical Twilight 6:47 AM EST 6:14 PM EST
Astronomical Twilight 6:13 AM EST 6:48 PM EST
Moon 9:01 PM EST (1/2) 10:37 AM EST (1/2)
Length of Visible Light 10h 17m
Length of Day
9h 15m
Waning Gibbous, 86% of the Moon is Illuminated
Jan 2
Waning Gibbous
Jan 5
Last Quarter
Jan 13
New
Jan 21
First Quarter
Jan 28
Full

Hourly Weather History & Observations

Time (EST) Temp. Windchill Dew Point Humidity Pressure Visibility Wind Dir Wind Speed Gust Speed Precip Events Conditions
12:53 AM 25.0 °F 19.3 °F 19.9 °F 81% 30.38 in 4.0 mi SSW 4.6 mph - 0.00 in Snow Light Snow
1:53 AM 25.0 °F 17.1 °F 21.0 °F 85% 30.39 in 3.0 mi SSW 6.9 mph - 0.00 in Snow Light Snow
2:53 AM 26.1 °F 20.5 °F 21.9 °F 84% 30.40 in 4.0 mi SSE 4.6 mph - 0.00 in   Overcast
3:53 AM 27.0 °F 23.0 °F 21.9 °F 81% 30.40 in 8.0 mi Variable 3.5 mph - 0.00 in Snow Light Snow
4:22 AM 30.2 °F 21.9 °F 19.4 °F 64% 30.37 in 9.0 mi NW 9.2 mph - 0.00 in   Overcast
4:53 AM 30.0 °F 26.5 °F 18.0 °F 61% 30.40 in 10.0 mi Variable 3.5 mph - 0.00 in   Overcast
5:53 AM 27.0 °F 20.5 °F 19.9 °F 75% 30.40 in 10.0 mi SW 5.8 mph - N/A   Overcast
6:53 AM 28.0 °F 18.1 °F 17.1 °F 63% 30.39 in 10.0 mi WNW 11.5 mph - N/A   Mostly Cloudy
7:53 AM 28.9 °F 18.6 °F 18.0 °F 64% 30.39 in 10.0 mi West 12.7 mph - N/A   Overcast
8:53 AM 28.9 °F 19.2 °F 19.0 °F 67% 30.42 in 10.0 mi WNW 11.5 mph - N/A   Overcast
9:53 AM 28.0 °F 19.3 °F 19.9 °F 72% 30.45 in 10.0 mi SW 9.2 mph - N/A   Overcast
10:53 AM 28.0 °F 18.1 °F 21.0 °F 75% 30.44 in 10.0 mi SW 11.5 mph - N/A   Overcast
11:53 AM 28.9 °F 20.4 °F 19.9 °F 69% 30.40 in 10.0 mi WSW 9.2 mph - N/A   Overcast
12:08 PM 28.4 °F 18.5 °F 19.4 °F 69% 30.36 in 10.0 mi WSW 11.5 mph - N/A   Overcast
1:29 PM 28.4 °F 18.0 °F 21.2 °F 74% 30.33 in 2.0 mi WNW 12.7 mph - N/A Snow Light Snow
1:53 PM 28.0 °F 18.1 °F 21.0 °F 75% 30.35 in 10.0 mi West 11.5 mph - N/A Snow Light Snow
2:53 PM 28.9 °F 18.6 °F 19.9 °F 69% 30.32 in 10.0 mi West 12.7 mph - 0.00 in   Overcast
3:17 PM 28.4 °F 19.1 °F 19.4 °F 69% 30.30 in 10.0 mi WNW 10.4 mph - N/A   Overcast
3:25 PM 28.4 °F 18.5 °F 17.6 °F 64% 30.30 in 10.0 mi West 11.5 mph 19.6 mph N/A   Overcast
3:53 PM 28.0 °F 19.3 °F 18.0 °F 66% 30.32 in 10.0 mi West 9.2 mph - N/A   Overcast
4:53 PM 27.0 °F 18.7 °F 19.0 °F 72% 30.32 in 10.0 mi West 8.1 mph - N/A   Mostly Cloudy
5:44 PM 26.6 °F 16.8 °F 17.6 °F 69% 30.30 in 10.0 mi West 10.4 mph - N/A   Scattered Clouds
5:53 PM 26.1 °F 15.0 °F 18.0 °F 71% 30.33 in 10.0 mi WSW 12.7 mph - N/A   Partly Cloudy
6:53 PM 23.0 °F 13.1 °F 17.1 °F 78% 30.32 in 10.0 mi SW 9.2 mph - N/A   Clear
7:53 PM 21.9 °F 11.7 °F 15.1 °F 75% 30.31 in 10.0 mi SW 9.2 mph - N/A   Clear
8:53 PM 23.0 °F 12.4 °F 17.1 °F 78% 30.30 in 10.0 mi SW 10.4 mph - N/A   Mostly Cloudy
9:42 PM 24.8 °F 16.1 °F 17.6 °F 74% 30.25 in 10.0 mi SW 8.1 mph - N/A   Mostly Cloudy
9:53 PM 25.0 °F 16.3 °F 18.0 °F 75% 30.27 in 10.0 mi SW 8.1 mph - N/A   Overcast
10:53 PM 24.1 °F 13.7 °F 17.1 °F 75% 30.25 in 10.0 mi SW 10.4 mph - N/A   Mostly Cloudy
11:53 PM 25.0 °F 16.3 °F 18.0 °F 75% 30.22 in 10.0 mi SW 8.1 mph - N/A   Overcast